[[{"header":{"parameterUnit":"m.s-1","parameterCategory":2,"la1":30.2991,"la2":30.254,"lo1":-89.0895,"lo2":-89.0444,"dy":0.0017,"dx":0.0017,"nx":28,"ny":28,"refTime":"2025-07-07T21:00:00:Z","depth":"0","parameterNumber":2,"parameterNumberName":"U-component_of_CURRENTS"},"data":[0,0,0,0,0,0,0,0,0,0,0,0,0,0,0,0,0,0,0,0,0,0,0,0,0,0,0,0,0,0,0,0,0,0,0,0,0,0,0,0,0,0,0,0,0,0,0,0,0,0,0,0,0,0,0,0,0,0,0.1605,0.1605,0,0.1625,0.1626,0.1626,0.1643,0.1643,0.1642,0.1642,0.1673,0.1675,0.1676,0,0,0,0,0,0,0,0,0,0,0,0,0,0.1474,0.1478,0.1605,0.1605,0.1604,0.1625,0.1626,0.1627,0.1643,0.1642,0.1642,0.1641,0.1673,0.1674,0.1676,0,0,0,0,0,0,0,0,0,0,0,0,0,0.1523,0.1479,0.1605,0.161,0.161,0.1624,0.1626,0.1627,0.1643,0.1642,0.1642,0.1641,0.1672,0.1674,0.1676,0.1702,0,0,0.1682,0.1683,0,0,0,0,0,0,0,0,0.1521,0.1529,0.161,0.1609,0.161,0.1624,0.1591,0.165,0.1643,0.1638,0.1642,0.1641,0.1654,0.1657,0.1673,0.1704,0.1705,0.1682,0.1683,0.1684,0.1685,0,0,0,0,0,0,0,0.1517,0.1528,0.162,0.1609,0.1609,0.1573,0.1581,0.1602,0.1655,0.1638,0.1638,0.1629,0.1655,0.1671,0.1673,0.1705,0.1682,0.1684,0.1685,0.1686,0.1811,0.1813,0,0,0,0,0,0,0.1508,0.1526,0.1619,0.162,0.1554,0.1576,0.1585,0.1626,0.1655,0.1656,0.163,0.163,0.1668,0.1671,0.1674,0.1714,0.1684,0.1686,0.1687,0.1808,0.1811,0.1813,0,0,0,0,0,0,0.1506,0.1519,0.1618,0.1564,0.1573,0.1579,0.1625,0.1627,0.1635,0.1647,0.165,0.1634,0.1667,0.1672,0.1713,0.1715,0.1687,0.1689,0.1806,0.1809,0.1812,0.1788,0,0,0,0,0,0,0.1503,0.1519,0.1538,0.1565,0.1576,0.1628,0.1625,0.1627,0.1628,0.1628,0.1652,0.1654,0.1667,0.171,0.1715,0.1717,0.169,0.1803,0.1807,0.1811,0.1786,0.179,0.1793,0,0,0,0,0,0.15,0.1532,0.154,0.1549,0.1606,0.1628,0.1631,0.1635,0.1628,0.164,0.1669,0.1653,0.1739,0.1714,0.1719,0.1721,0.1801,0.1806,0.1811,0.1784,0.1789,0.1793,0,0,0,0,0,0,0.1478,0.1537,0.1546,0.1594,0.1606,0.1628,0.1633,0.1632,0.1664,0.1664,0.1679,0.1686,0.1727,0.1739,0.171,0.1776,0.1768,0.1774,0.1747,0.1751,0.1755,0.173,0.1692,0,0,0,0,0,0.1483,0.1535,0.1561,0.1597,0.1606,0.1618,0.1622,0.1626,0.1652,0.1664,0.1687,0.1718,0.1754,0.1762,0.1802,0.1828,0.19,0.1838,0.1842,0.1844,0.1833,0.1941,0.1952,0.1829,0.1829,0.1829,0,0,0.1481,0.1519,0.1545,0.1595,0.161,0.1628,0.1622,0.1634,0.165,0.1663,0.1706,0.1735,0.177,0.1811,0.1829,0.1814,0.1937,0.185,0.1852,0.1839,0.1947,0.1959,0.1969,0.1833,0.1832,0.1832,0,0,0.151,0.1542,0.1594,0.1602,0.162,0.1628,0.1628,0.1655,0.167,0.1715,0.1731,0.1755,0.1821,0.1831,0.1847,0.1894,0.1961,0.1916,0.1895,0.2001,0.2011,0.202,0.2201,0.2227,0.1905,0.1905,0.1905,0,0.1501,0.1574,0.1602,0.1635,0.1627,0.1628,0.1644,0.1667,0.1704,0.172,0.1733,0.1826,0.1827,0.1867,0.187,0.1894,0.2004,0.1865,0.2002,0.2013,0.2023,0.2205,0.2234,0.1904,0.1905,0.1905,0.1905,0,0.156,0.1602,0.1622,0.1675,0.1671,0.1681,0.1693,0.1712,0.1728,0.1752,0.1813,0.1844,0.1891,0.1894,0.1884,0.1946,0.2025,0.2002,0.198,0.2033,0.2224,0.2254,0.1904,0.1904,0.1904,0.1904,0,0,0.1588,0.1656,0.1661,0.1678,0.1681,0.169,0.1707,0.1731,0.1764,0.1805,0.1868,0.1881,0.1897,0.1916,0.1919,0.197,0.2127,0.2002,0.2008,0.2164,0.2447,0.2482,0.2519,0.2139,0.2142,0.2145,0.2578,0,0.1622,0.1695,0.1703,0.173,0.1756,0.1731,0.175,0.1762,0.1804,0.1876,0.1896,0.1974,0.1911,0.1951,0.1984,0.2102,0.2195,0.2017,0.2387,0.2399,0.2406,0.2548,0.2509,0.2887,0.2608,0.2613,0.2616,0,0.1676,0.1715,0.1755,0.1772,0.1775,0.1776,0.179,0.181,0.1879,0.1923,0.1976,0.2035,0.2109,0.2062,0.2285,0.2189,0.2306,0.2394,0.2413,0.2459,0.2486,0.2778,0.2953,0.2863,0.2663,0.2659,0.2656,0,0.1699,0.1745,0.1774,0.1773,0.1793,0.179,0.1788,0.1823,0.1859,0.1972,0.2055,0.2149,0.2267,0.2379,0.2526,0.2442,0.2822,0.2741,0.2902,0.2911,0.2952,0.2956,0.3055,0.2916,0.2915,0.2913,0.2912,0,0.1738,0.1774,0.1789,0.1805,0.1809,0.181,0.1831,0.1856,0.1932,0.2018,0.2083,0.2228,0.2351,0.2565,0.2641,0.2905,0.2939,0.2947,0.3021,0.2953,0.2951,0.293,0.2833,0.293,0.2926,0.2923,0.292,0,0.1793,0.1811,0.1838,0.184,0.1827,0.183,0.1829,0.1872,0.1953,0.2086,0.2143,0.2365,0.2673,0.2828,0.3106,0.3112,0.3247,0.3392,0.334,0.3393,0.337,0.3274,0.3315,0.3228,0.3649,0.3653,0.3656,0,0.185,0.1865,0.184,0.1826,0.1826,0.182,0.1818,0.1864,0.1929,0.2184,0.2281,0.2627,0.2867,0.3312,0.3437,0.3682,0.348,0.3741,0.3502,0.3405,0.3355,0.3114,0.3016,0.3614,0.3617,0.3618,0.362,0,0.192,0.1892,0.1899,0.1857,0.1841,0.1832,0.1856,0.1916,0.2032,0.2201,0.2514,0.2743,0.3181,0.3457,0.3742,0.3824,0.3541,0.3784,0.3694,0.3345,0.3083,0.3024,0.3341,0.3636,0.3635,0.3633,0.3633,0.3632,0.1951,0.1949,0.1921,0.1892,0.1869,0.1883,0.1913,0.1997,0.215,0.2415,0.2631,0.2949,0.3317,0.3728,0.3803,0.3863,0.3714,0.3775,0.3695,0.3482,0.3267,0.3641,0.3969,0.397,0.397,0.397,0.397,0,0.1998,0.1988,0.1955,0.1936,0.1938,0.1908,0.1969,0.2035,0.2248,0.247,0.2737,0.3106,0.3422,0.3645,0.3842,0.3766,0.3534,0.3693,0.3333,0.3259,0.3667,0.3528,0.3759,0.3759,0.3759,0.3759,0.3759,0.3759,0.2026,0.203,0.2014,0.2023,0.2007,0.2038,0.2088,0.2186,0.2319,0.2592,0.2778,0.295,0.326,0.3599,0.3645,0.3581,0.3271,0.3223,0.3123,0.34,0.3398,0.3396,0.3242,0.3409,0.3409,0.2617,0.2611,0.2606]},{"header":{"parameterUnit":"m.s-1","parameterCategory":2,"la1":30.2991,"la2":30.254,"lo1":-89.0895,"lo2":-89.0444,"dy":0.0017,"dx":0.0017,"nx":28,"ny":28,"refTime":"2025-07-07T21:00:00:Z","depth":"0","parameterNumber":3,"parameterNumberName":"V-component_of_CURRENTS"},"data":[0,0,0,0,0,0,0,0,0,0,0,0,0,0,0,0,0,0,0,0,0,0,0,0,0,0,0,0,0,0,0,0,0,0,0,0,0,0,0,0,0,0,0,0,0,0,0,0,0,0,0,0,0,0,0,0,0,0,-0.0222,-0.0222,0,-0.0234,-0.0234,-0.0234,-0.0255,-0.0256,-0.0256,-0.0257,-0.0282,-0.0282,-0.0283,0,0,0,0,0,0,0,0,0,0,0,0,0,-0.0165,-0.0167,-0.0222,-0.0222,-0.0223,-0.0234,-0.0234,-0.0234,-0.0255,-0.0256,-0.0256,-0.0257,-0.0282,-0.0282,-0.0283,0,0,0,0,0,0,0,0,0,0,0,0,0,-0.0184,-0.0167,-0.0222,-0.0235,-0.0237,-0.0234,-0.0234,-0.0234,-0.0255,-0.0256,-0.0256,-0.0257,-0.0282,-0.0282,-0.0283,-0.027,0,0,-0.0284,-0.0284,0,0,0,0,0,0,0,0,-0.0183,-0.0186,-0.0233,-0.0234,-0.0236,-0.0245,-0.0223,-0.0247,-0.0255,-0.0247,-0.0257,-0.0258,-0.0271,-0.0272,-0.0271,-0.0271,-0.0272,-0.0284,-0.0284,-0.0284,-0.0284,0,0,0,0,0,0,0,-0.0182,-0.0185,-0.0226,-0.0233,-0.0235,-0.0223,-0.0227,-0.0228,-0.0254,-0.0248,-0.0249,-0.0252,-0.0272,-0.0271,-0.0272,-0.0272,-0.0284,-0.0284,-0.0284,-0.0284,-0.0295,-0.0295,0,0,0,0,0,0,-0.0185,-0.0185,-0.0225,-0.0226,-0.0212,-0.0223,-0.0228,-0.024,-0.0254,-0.0257,-0.0252,-0.0253,-0.027,-0.0272,-0.0273,-0.0286,-0.0284,-0.0284,-0.0285,-0.0295,-0.0295,-0.0295,0,0,0,0,0,0,-0.0183,-0.0188,-0.0225,-0.0206,-0.021,-0.0224,-0.0238,-0.024,-0.0244,-0.0257,-0.026,-0.0254,-0.0271,-0.0273,-0.028,-0.0286,-0.0285,-0.0285,-0.0295,-0.0295,-0.0295,-0.0293,0,0,0,0,0,0,-0.0182,-0.0188,-0.0195,-0.0206,-0.0211,-0.0229,-0.0237,-0.024,-0.0245,-0.0247,-0.026,-0.0263,-0.0271,-0.028,-0.0281,-0.0286,-0.0285,-0.0295,-0.0295,-0.0295,-0.0293,-0.0294,-0.0294,0,0,0,0,0,-0.018,-0.0193,-0.0195,-0.02,-0.0221,-0.0229,-0.023,-0.0241,-0.0244,-0.0247,-0.0256,-0.0262,-0.0282,-0.028,-0.0281,-0.0287,-0.0295,-0.0295,-0.0295,-0.0293,-0.0293,-0.0294,0,0,0,0,0,0,-0.0173,-0.0197,-0.02,-0.022,-0.0224,-0.0233,-0.0237,-0.0239,-0.0246,-0.0252,-0.026,-0.0263,-0.0272,-0.0277,-0.0275,-0.0291,-0.0291,-0.0291,-0.0289,-0.0289,-0.0289,-0.03,-0.0285,0,0,0,0,0,-0.0174,-0.0192,-0.0203,-0.0217,-0.022,-0.0225,-0.0228,-0.0236,-0.0245,-0.0249,-0.0252,-0.0262,-0.0271,-0.0279,-0.0284,-0.029,-0.0265,-0.0296,-0.0296,-0.0296,-0.0306,-0.026,-0.0257,-0.0296,-0.0296,-0.0296,0,0,-0.0174,-0.019,-0.0199,-0.0216,-0.0221,-0.0235,-0.0229,-0.0239,-0.0251,-0.025,-0.0261,-0.0258,-0.0272,-0.0281,-0.0286,-0.0289,-0.0268,-0.0296,-0.0296,-0.0306,-0.026,-0.0256,-0.0252,-0.0296,-0.0296,-0.0296,0,0,-0.0193,-0.0197,-0.0222,-0.0226,-0.0238,-0.024,-0.0243,-0.0248,-0.025,-0.0255,-0.0261,-0.0263,-0.0269,-0.0283,-0.0292,-0.0295,-0.0266,-0.0294,-0.0308,-0.0263,-0.0259,-0.0256,-0.0199,-0.019,-0.0298,-0.0298,-0.0298,0,-0.019,-0.0231,-0.0226,-0.0249,-0.0255,-0.0245,-0.0265,-0.0265,-0.0271,-0.0254,-0.0262,-0.0247,-0.0274,-0.0276,-0.03,-0.0296,-0.0256,-0.0306,-0.0262,-0.0258,-0.0254,-0.0197,-0.0188,-0.0298,-0.0298,-0.0298,-0.0298,0,-0.0237,-0.026,-0.0271,-0.03,-0.0297,-0.0313,-0.0308,-0.0295,-0.0285,-0.0272,-0.025,-0.0265,-0.0246,-0.0268,-0.0301,-0.0289,-0.0262,-0.0261,-0.0259,-0.025,-0.019,-0.018,-0.0298,-0.0298,-0.0298,-0.0298,0,0,-0.0256,-0.0298,-0.0303,-0.0302,-0.0326,-0.0312,-0.0325,-0.0309,-0.0252,-0.0272,-0.02,-0.0274,-0.0239,-0.025,-0.0263,-0.0267,-0.0229,-0.0269,-0.0266,-0.0208,-0.0108,-0.0118,-0.0108,-0.0208,-0.0207,-0.0206,-0.0069,0,-0.0296,-0.034,-0.0357,-0.0368,-0.0378,-0.0358,-0.0334,-0.0306,-0.0263,-0.0177,-0.0195,-0.0128,-0.0241,-0.019,-0.0228,-0.0201,-0.0206,-0.0266,-0.013,-0.0126,-0.0133,-0.0099,-0.0112,0.0006,-0.0059,-0.0057,-0.0056,0,-0.0347,-0.0361,-0.0396,-0.0357,-0.0351,-0.0342,-0.0249,-0.0228,-0.0131,-0.0076,-0.0041,-0.0003,-0.0011,-0.0077,-0.0085,-0.0108,-0.013,-0.0135,-0.0128,-0.0138,-0.012,-0.0018,0.0027,-0.0184,-0.0041,-0.0042,-0.0043,0,-0.0345,-0.0378,-0.0396,-0.0397,-0.0359,-0.033,-0.0286,-0.0191,-0.0094,0.0022,0.0152,0.013,0.0222,0.0141,0.0086,0.0027,0.0116,0.0058,0.0023,0.0024,0.0036,0.0035,-0.0108,0.0049,0.0049,0.0049,0.0048,0,-0.0377,-0.0371,-0.0382,-0.0374,-0.0308,-0.029,-0.0165,-0.0102,0.0057,0.0241,0.0225,0.0398,0.0286,0.0326,0.0187,0.0154,0.0204,0.0028,0.0057,0.0037,0.0034,-0.0132,-0.0249,0.0054,0.0053,0.0052,0.0051,0,-0.0339,-0.0385,-0.0364,-0.033,-0.0307,-0.0236,-0.0072,0.0062,0.0188,0.0441,0.0507,0.0649,0.0706,0.058,0.0534,0.0361,0.0189,0.0257,0.024,0.026,-0.0033,-0.0148,-0.0196,-0.0269,0.0231,0.0231,0.0232,0,-0.0303,-0.0313,-0.0298,-0.026,-0.0236,-0.0131,-0.0016,0.0116,0.0297,0.062,0.0786,0.093,0.1076,0.0985,0.0707,0.0502,0.0292,0.0339,0.0175,-0.0051,-0.0156,-0.0221,-0.0285,0.0214,0.0214,0.0214,0.0214,0,-0.0191,-0.0215,-0.0192,-0.0135,-0.0049,0.0081,0.0258,0.0428,0.0658,0.0905,0.1266,0.1408,0.1329,0.1177,0.086,0.0651,0.0181,0.0335,0.0116,-0.0182,-0.0272,-0.0325,0.0129,0.0216,0.0216,0.0216,0.0216,0.0216,-0.0063,-0.0038,-0.0031,0.0043,0.0132,0.0332,0.0523,0.0754,0.1083,0.1513,0.1593,0.1849,0.1526,0.1105,0.0805,0.0195,0.0215,-0.0002,-0.0112,-0.0148,-0.0277,0.0171,0.0267,0.0267,0.0267,0.0267,0.0267,0,0.0137,0.0126,0.0173,0.0276,0.0429,0.0443,0.0755,0.0998,0.1426,0.1726,0.2028,0.1979,0.1547,0.1019,0.0233,-0.0174,-0.035,-0.0403,-0.0535,-0.0573,-0.0151,-0.022,-0.0245,-0.0245,-0.0245,-0.0244,-0.0244,-0.0244,0.0253,0.032,0.0307,0.0546,0.0644,0.0938,0.1148,0.147,0.1728,0.2141,0.228,0.233,0.1855,0.0509,-0.0435,-0.0654,-0.0942,-0.0959,-0.1086,-0.0876,-0.0849,-0.0823,-0.0919,-0.109,-0.1091,-0.1462,-0.1466,-0.1469]}],[{"header":{"parameterUnit":"m.s-1","parameterCategory":2,"la1":30.2991,"la2":30.254,"lo1":-89.0895,"lo2":-89.0444,"dy":0.0017,"dx":0.0017,"nx":28,"ny":28,"refTime":"2025-07-07T21:00:00:Z","depth":"2","parameterNumber":2,"parameterNumberName":"U-component_of_CURRENTS"},"data":[0,0,0,0,0,0,0,0,0,0,0,0,0,0,0,0,0,0,0,0,0,0,0,0,0,0,0,0,0,0,0,0,0,0,0,0,0,0,0,0,0,0,0,0,0,0,0,0,0,0,0,0,0,0,0,0,0,0,0.0452,0.0452,0,0.0468,0.0468,0.0468,0.046,0.046,0.046,0.0459,0.0417,0.0416,0.0415,0,0,0,0,0,0,0,0,0,0,0,0,0,0.0556,0.0553,0.0452,0.0452,0.0453,0.0468,0.0468,0.0468,0.046,0.046,0.046,0.0459,0.0417,0.0416,0.0415,0,0,0,0,0,0,0,0,0,0,0,0,0,0.0534,0.0552,0.0452,0.0452,0.0452,0.0468,0.0468,0.0468,0.046,0.046,0.046,0.0459,0.0418,0.0416,0.0415,0.0416,0,0,0.0411,0.041,0,0,0,0,0,0,0,0,0.0535,0.053,0.0451,0.0452,0.0452,0.0463,0.0489,0.0448,0.0461,0.0456,0.0459,0.0459,0.0428,0.0426,0.0429,0.0414,0.0412,0.0411,0.041,0.041,0.0409,0,0,0,0,0,0,0,0.0536,0.053,0.0457,0.0452,0.0452,0.0499,0.0494,0.0482,0.0442,0.0456,0.0456,0.046,0.0428,0.043,0.0428,0.0411,0.0411,0.041,0.0409,0.0408,0.0438,0.044,0,0,0,0,0,0,0.0529,0.053,0.0456,0.0457,0.0495,0.0497,0.0492,0.0459,0.0443,0.0441,0.046,0.046,0.0432,0.0429,0.0426,0.0458,0.041,0.0408,0.0408,0.0436,0.0438,0.044,0,0,0,0,0,0,0.0531,0.0521,0.0456,0.0498,0.0493,0.0495,0.0459,0.0459,0.0465,0.0447,0.0444,0.0466,0.0432,0.0428,0.0431,0.0454,0.0408,0.0407,0.0435,0.0437,0.0439,0.05,0,0,0,0,0,0,0.0533,0.052,0.0496,0.0496,0.049,0.0474,0.0459,0.046,0.0468,0.0468,0.0451,0.0447,0.0431,0.0434,0.043,0.0452,0.0406,0.0433,0.0436,0.0438,0.0496,0.0504,0.0511,0,0,0,0,0,0.0536,0.0508,0.0494,0.0486,0.0454,0.0475,0.0477,0.0478,0.0469,0.048,0.0472,0.0447,0.045,0.0434,0.0429,0.0451,0.0431,0.0435,0.0438,0.0492,0.0502,0.0511,0,0,0,0,0,0,0.0561,0.0504,0.0489,0.0449,0.0465,0.0475,0.0484,0.0483,0.0486,0.0483,0.0461,0.0457,0.0474,0.0455,0.0438,0.0471,0.0439,0.0442,0.0482,0.0491,0.0498,0.0485,0.0405,0,0,0,0,0,0.0548,0.0493,0.0489,0.046,0.047,0.0478,0.0485,0.0489,0.0493,0.0494,0.0488,0.0482,0.0486,0.0481,0.0483,0.0491,0.0549,0.0506,0.0513,0.0519,0.0508,0.0609,0.0626,0.0452,0.0452,0.0452,0,0,0.056,0.0514,0.0491,0.046,0.0472,0.0489,0.0481,0.0501,0.0514,0.0488,0.0506,0.0509,0.0496,0.0516,0.0521,0.0501,0.062,0.0524,0.0529,0.0514,0.0615,0.0632,0.0647,0.0454,0.0454,0.0453,0,0,0.0559,0.0512,0.0479,0.0488,0.0494,0.0502,0.0509,0.0529,0.0538,0.0556,0.0549,0.0565,0.0563,0.0567,0.0564,0.061,0.066,0.0617,0.0635,0.0735,0.0751,0.0764,0.0948,0.0978,0.0615,0.0615,0.0615,0,0.0572,0.0519,0.0489,0.0481,0.0493,0.0509,0.0526,0.0541,0.056,0.0571,0.0568,0.0594,0.0586,0.0606,0.0626,0.0626,0.0722,0.06,0.0747,0.0761,0.0774,0.0958,0.099,0.0618,0.0618,0.0618,0.0617,0,0.0552,0.0532,0.0532,0.0503,0.0519,0.0541,0.0563,0.0586,0.0598,0.0611,0.0645,0.065,0.0668,0.0673,0.0658,0.0738,0.0798,0.0753,0.0725,0.0795,0.0986,0.1018,0.0623,0.0622,0.0621,0.062,0,0,0.0534,0.0513,0.0517,0.0515,0.0533,0.0543,0.0579,0.061,0.0645,0.066,0.0726,0.0708,0.0726,0.0725,0.0727,0.0789,0.0993,0.081,0.0814,0.0997,0.1304,0.1265,0.1297,0.0983,0.0986,0.0989,0.1433,0,0.0537,0.0513,0.0509,0.0532,0.054,0.0568,0.0604,0.0633,0.0677,0.0756,0.0763,0.0849,0.0744,0.0814,0.0834,0.0952,0.1066,0.0882,0.1202,0.1214,0.117,0.1325,0.1094,0.1458,0.1465,0.147,0.1474,0,0.0528,0.0504,0.0505,0.0535,0.0547,0.0562,0.0624,0.0668,0.0767,0.0825,0.0873,0.094,0.1032,0.0975,0.1154,0.105,0.1185,0.1267,0.1286,0.1232,0.1229,0.137,0.1516,0.1527,0.1523,0.1519,0.1515,0,0.0506,0.0519,0.0506,0.0512,0.0541,0.0554,0.0594,0.0672,0.0762,0.0925,0.1058,0.1107,0.1257,0.1327,0.146,0.1361,0.1717,0.1612,0.1716,0.172,0.157,0.1551,0.1802,0.1802,0.1801,0.1799,0.1798,0,0.0495,0.0497,0.0489,0.0474,0.051,0.0538,0.0632,0.0686,0.0851,0.0996,0.1105,0.1254,0.136,0.1557,0.1593,0.1765,0.1837,0.1768,0.1824,0.1594,0.1573,0.1622,0.1595,0.1816,0.1812,0.1809,0.1806,0,0.0489,0.0466,0.0453,0.0462,0.0493,0.0511,0.0685,0.0789,0.093,0.1154,0.1262,0.148,0.1698,0.1826,0.2055,0.2007,0.2148,0.2217,0.1982,0.1995,0.2067,0.2038,0.2371,0.2373,0.2375,0.2377,0.2378,0,0.0487,0.0476,0.0461,0.0495,0.0502,0.0584,0.0697,0.082,0.0959,0.1255,0.1382,0.1704,0.1842,0.2162,0.2181,0.2333,0.2337,0.2271,0.197,0.2101,0.2123,0.2091,0.2061,0.1872,0.1869,0.1866,0.1865,0,0.0535,0.0507,0.0511,0.0575,0.0639,0.0738,0.0885,0.0978,0.1164,0.1336,0.157,0.171,0.1979,0.2003,0.2222,0.2223,0.2183,0.2223,0.2492,0.1708,0.1649,0.1663,0.1647,0.1843,0.1845,0.1847,0.1848,0.1849,0.0631,0.0625,0.066,0.0731,0.0807,0.09,0.0958,0.1098,0.1254,0.1441,0.1587,0.1731,0.1811,0.1958,0.1984,0.2029,0.2112,0.2028,0.2028,0.2033,0.1839,0.1779,0.1972,0.1974,0.1977,0.1979,0.1981,0,0.0786,0.0819,0.0875,0.092,0.1013,0.1038,0.1135,0.114,0.1239,0.1407,0.1541,0.1504,0.1561,0.1677,0.1677,0.1714,0.1607,0.1684,0.1513,0.1536,0.1556,0.1329,0.1332,0.1331,0.133,0.1328,0,0,0.0891,0.0962,0.0956,0.1128,0.1198,0.124,0.1249,0.1189,0.1229,0.1252,0.1335,0.1493,0.1608,0.1459,0.1441,0.1406,0.1453,0.135,0.186,0.1678,0.1696,0.174,0.1416,0,0,0,0,0]},{"header":{"parameterUnit":"m.s-1","parameterCategory":2,"la1":30.2991,"la2":30.254,"lo1":-89.0895,"lo2":-89.0444,"dy":0.0017,"dx":0.0017,"nx":28,"ny":28,"refTime":"2025-07-07T21:00:00:Z","depth":"2","parameterNumber":3,"parameterNumberName":"V-component_of_CURRENTS"},"data":[0,0,0,0,0,0,0,0,0,0,0,0,0,0,0,0,0,0,0,0,0,0,0,0,0,0,0,0,0,0,0,0,0,0,0,0,0,0,0,0,0,0,0,0,0,0,0,0,0,0,0,0,0,0,0,0,0,0,-0.0422,-0.0422,0,-0.0466,-0.0466,-0.0467,-0.0511,-0.0512,-0.0512,-0.0513,-0.0533,-0.0533,-0.0533,0,0,0,0,0,0,0,0,0,0,0,0,0,-0.0348,-0.0349,-0.0422,-0.0422,-0.0423,-0.0466,-0.0466,-0.0467,-0.0511,-0.0512,-0.0512,-0.0513,-0.0533,-0.0533,-0.0533,0,0,0,0,0,0,0,0,0,0,0,0,0,-0.0385,-0.035,-0.0422,-0.045,-0.0453,-0.0465,-0.0466,-0.0467,-0.0511,-0.0512,-0.0513,-0.0514,-0.0533,-0.0533,-0.0533,-0.0514,0,0,-0.0532,-0.0532,0,0,0,0,0,0,0,0,-0.0382,-0.0387,-0.0446,-0.0448,-0.0452,-0.0484,-0.0447,-0.0481,-0.0511,-0.0489,-0.0513,-0.0514,-0.0514,-0.0515,-0.0522,-0.0515,-0.0516,-0.0532,-0.0532,-0.0532,-0.0532,0,0,0,0,0,0,0,-0.038,-0.0385,-0.0439,-0.0446,-0.045,-0.0451,-0.0457,-0.0454,-0.0495,-0.0491,-0.0494,-0.0499,-0.0515,-0.0521,-0.0522,-0.0516,-0.0532,-0.0532,-0.0532,-0.0532,-0.0488,-0.0487,0,0,0,0,0,0,-0.0375,-0.0383,-0.0438,-0.044,-0.0419,-0.0452,-0.0459,-0.0473,-0.0496,-0.05,-0.0498,-0.0501,-0.0521,-0.0522,-0.0523,-0.0512,-0.0532,-0.0532,-0.0532,-0.0489,-0.0487,-0.0486,0,0,0,0,0,0,-0.0374,-0.038,-0.0436,-0.0412,-0.0419,-0.0452,-0.0467,-0.0473,-0.0488,-0.0501,-0.0506,-0.0508,-0.0522,-0.0523,-0.0528,-0.0512,-0.0532,-0.0532,-0.049,-0.0488,-0.0487,-0.0482,0,0,0,0,0,0,-0.0372,-0.038,-0.0387,-0.0412,-0.0421,-0.044,-0.0466,-0.0473,-0.0489,-0.0493,-0.0511,-0.0514,-0.0523,-0.0528,-0.0528,-0.0513,-0.0532,-0.0492,-0.0489,-0.0487,-0.0484,-0.0481,-0.0478,0,0,0,0,0,-0.0369,-0.0369,-0.0388,-0.0394,-0.0431,-0.0439,-0.0443,-0.0469,-0.0489,-0.0488,-0.0508,-0.0514,-0.0514,-0.0528,-0.0528,-0.0512,-0.0493,-0.049,-0.0488,-0.0485,-0.0481,-0.0478,0,0,0,0,0,0,-0.0338,-0.0375,-0.0395,-0.0408,-0.0423,-0.0447,-0.0449,-0.0469,-0.0485,-0.0491,-0.051,-0.0513,-0.0509,-0.0506,-0.0521,-0.0489,-0.0499,-0.0496,-0.0497,-0.0493,-0.049,-0.0517,-0.0532,0,0,0,0,0,-0.0336,-0.035,-0.038,-0.0388,-0.0396,-0.0425,-0.0433,-0.045,-0.0467,-0.0476,-0.0489,-0.0494,-0.0495,-0.0494,-0.0492,-0.0479,-0.0487,-0.0462,-0.0459,-0.0457,-0.0476,-0.0498,-0.05,-0.0478,-0.0478,-0.0478,0,0,-0.0329,-0.0348,-0.0359,-0.0383,-0.0399,-0.0406,-0.0432,-0.044,-0.0448,-0.0473,-0.0482,-0.0488,-0.0489,-0.0479,-0.0475,-0.0478,-0.0455,-0.0454,-0.0452,-0.0473,-0.0496,-0.0499,-0.0501,-0.0476,-0.0476,-0.0477,0,0,-0.0313,-0.0336,-0.0344,-0.0354,-0.0375,-0.0389,-0.0392,-0.0417,-0.043,-0.0435,-0.0455,-0.0462,-0.0452,-0.0462,-0.0462,-0.0438,-0.0442,-0.0419,-0.0425,-0.0445,-0.0449,-0.0452,-0.0419,-0.0419,-0.0413,-0.0413,-0.0413,0,-0.0302,-0.0322,-0.0343,-0.0347,-0.0357,-0.0382,-0.0387,-0.0397,-0.0419,-0.0433,-0.0432,-0.045,-0.0448,-0.0458,-0.0448,-0.0435,-0.0433,-0.0443,-0.0445,-0.0449,-0.0452,-0.0418,-0.0419,-0.0413,-0.0413,-0.0413,-0.0413,0,-0.0294,-0.031,-0.0309,-0.0331,-0.0338,-0.0342,-0.0361,-0.037,-0.0386,-0.0404,-0.0419,-0.0426,-0.0441,-0.0427,-0.0432,-0.0445,-0.0428,-0.0445,-0.0464,-0.0455,-0.0418,-0.0418,-0.0412,-0.0412,-0.0412,-0.0412,0,0,-0.028,-0.0301,-0.0306,-0.031,-0.0332,-0.0332,-0.0345,-0.0368,-0.0367,-0.0396,-0.0397,-0.0421,-0.0439,-0.0441,-0.0444,-0.0462,-0.046,-0.0463,-0.0464,-0.0445,-0.047,-0.05,-0.0504,-0.0486,-0.0487,-0.0488,-0.0418,0,-0.0274,-0.0274,-0.0294,-0.0294,-0.0296,-0.0322,-0.0321,-0.0342,-0.0351,-0.0347,-0.0388,-0.0368,-0.0437,-0.0409,-0.0462,-0.0458,-0.047,-0.0475,-0.0469,-0.0468,-0.0511,-0.051,-0.0521,-0.0466,-0.0419,-0.0419,-0.0419,0,-0.0275,-0.027,-0.0273,-0.0272,-0.0275,-0.0277,-0.0283,-0.0281,-0.0297,-0.0294,-0.0335,-0.0338,-0.0374,-0.0399,-0.0472,-0.0475,-0.0481,-0.0484,-0.0482,-0.0526,-0.0504,-0.0475,-0.047,-0.042,-0.042,-0.042,-0.042,0,-0.0257,-0.0262,-0.0261,-0.0263,-0.0262,-0.027,-0.0266,-0.0278,-0.0239,-0.0242,-0.0185,-0.0287,-0.0247,-0.0351,-0.0388,-0.0421,-0.0432,-0.047,-0.0503,-0.0501,-0.0521,-0.0522,-0.051,-0.051,-0.051,-0.051,-0.051,0,-0.0239,-0.0244,-0.0249,-0.0245,-0.0215,-0.0236,-0.0197,-0.0201,-0.016,-0.0092,-0.0148,-0.0101,-0.0231,-0.0252,-0.0352,-0.0434,-0.0413,-0.0513,-0.0506,-0.0512,-0.0513,-0.0494,-0.0493,-0.0507,-0.0508,-0.0508,-0.0509,0,-0.0228,-0.0233,-0.0223,-0.0219,-0.0207,-0.0184,-0.0115,-0.0066,-0.0038,0.0062,0.0092,0.0075,0.0012,-0.01,-0.0198,-0.0328,-0.0419,-0.0433,-0.0408,-0.0403,-0.048,-0.0479,-0.05,-0.0501,-0.0502,-0.0503,-0.0503,0,-0.0217,-0.0225,-0.0199,-0.0153,-0.0148,-0.0102,-0.0048,-0.001,0.0071,0.016,0.0234,0.0229,0.0183,0.0016,-0.0189,-0.0363,-0.0367,-0.0447,-0.0553,-0.0499,-0.0488,-0.0486,-0.0484,-0.0534,-0.0534,-0.0535,-0.0535,0,-0.0207,-0.0217,-0.0201,-0.0104,-0.004,0.0055,0.0136,0.0223,0.029,0.0375,0.0451,0.0415,0.0236,0.0009,-0.0211,-0.0343,-0.0453,-0.0469,-0.0408,-0.0556,-0.0532,-0.0521,-0.0517,-0.0541,-0.054,-0.054,-0.054,-0.054,-0.0206,-0.0185,-0.015,-0.0057,0.0047,0.02,0.0289,0.0394,0.0521,0.0626,0.0563,0.0521,0.0254,-0.0072,-0.0277,-0.0459,-0.0492,-0.0574,-0.0571,-0.0567,-0.0606,-0.0588,-0.061,-0.061,-0.061,-0.061,-0.0609,0,-0.0182,-0.0153,-0.0085,0.0048,0.0187,0.0246,0.0415,0.051,0.0656,0.0705,0.0708,0.0463,0.0199,-0.0034,-0.0344,-0.0572,-0.0579,-0.0603,-0.058,-0.0576,-0.0572,-0.0609,-0.0614,-0.0614,-0.0613,-0.0613,0,0,-0.0159,-0.0107,-0.0081,0.0137,0.0262,0.0452,0.0559,0.0693,0.0772,0.079,0.0762,0.0608,0.0286,0.0073,-0.0248,-0.0407,-0.0416,-0.0428,-0.0416,-0.0351,-0.0342,-0.0567,-0.0624,0,0,0,0,0]}],[{"header":{"parameterUnit":"m.s-1","parameterCategory":2,"la1":30.2991,"la2":30.254,"lo1":-89.0895,"lo2":-89.0444,"dy":0.0017,"dx":0.0017,"nx":28,"ny":28,"refTime":"2025-07-07T21:00:00:Z","depth":"4","parameterNumber":2,"parameterNumberName":"U-component_of_CURRENTS"},"data":[0,0,0,0,0,0,0,0,0,0,0,0,0,0,0,0,0,0,0,0,0,0,0,0,0,0,0,0,0,0,0,0,0,0,0,0,0,0,0,0,0,0,0,0,0,0,0,0,0,0,0,0,0,0,0,0,0,0,0.0228,0.0229,0,0.0275,0.0276,0.0276,0.0301,0.0302,0.0302,0.0302,0.032,0.032,0.0321,0,0,0,0,0,0,0,0,0,0,0,0,0,0.0176,0.0176,0.0228,0.0229,0.023,0.0275,0.0276,0.0276,0.0301,0.0302,0.0302,0.0302,0.032,0.032,0.0321,0,0,0,0,0,0,0,0,0,0,0,0,0,0.0206,0.0176,0.0228,0.025,0.0252,0.0275,0.0276,0.0276,0.0301,0.0302,0.0302,0.0302,0.032,0.032,0.0321,0.0314,0,0,0.0322,0.0322,0,0,0,0,0,0,0,0,0.0204,0.0207,0.0246,0.0248,0.0251,0.0285,0.0264,0.0288,0.0301,0.028,0.0302,0.0303,0.0307,0.0308,0.0313,0.0315,0.0316,0.0322,0.0322,0.0322,0.0322,0,0,0,0,0,0,0,0.0202,0.0206,0.0244,0.0247,0.025,0.0262,0.0267,0.0269,0.0288,0.0282,0.0285,0.0293,0.0308,0.0313,0.0314,0.0316,0.0322,0.0322,0.0322,0.0322,0.0356,0.0357,0,0,0,0,0,0,0.02,0.0203,0.0243,0.0246,0.0231,0.0263,0.0268,0.0272,0.0289,0.0293,0.0293,0.0294,0.0312,0.0313,0.0315,0.0352,0.0322,0.0322,0.0323,0.0356,0.0356,0.0357,0,0,0,0,0,0,0.0198,0.0203,0.0241,0.0228,0.0234,0.0264,0.0268,0.0272,0.0289,0.0298,0.0301,0.0306,0.0313,0.0314,0.0328,0.0351,0.0323,0.0323,0.0355,0.0356,0.0357,0.0398,0,0,0,0,0,0,0.0196,0.0201,0.0202,0.0228,0.0235,0.0263,0.0268,0.0273,0.0294,0.0297,0.031,0.0312,0.0313,0.0327,0.0328,0.0351,0.0323,0.0354,0.0355,0.0356,0.0395,0.04,0.0404,0,0,0,0,0,0.0194,0.0196,0.0201,0.0206,0.0235,0.0263,0.0268,0.0289,0.0295,0.0304,0.0314,0.0312,0.0336,0.0328,0.0329,0.0352,0.0353,0.0355,0.0356,0.0393,0.0399,0.0404,0,0,0,0,0,0,0.017,0.0199,0.0206,0.0215,0.0241,0.0269,0.028,0.0293,0.0309,0.0313,0.0317,0.0319,0.0339,0.0337,0.0328,0.0365,0.0346,0.0348,0.0374,0.0379,0.0383,0.0408,0.0323,0,0,0,0,0,0.0165,0.0174,0.0206,0.0212,0.0228,0.0254,0.0268,0.0285,0.0304,0.0312,0.0324,0.0335,0.0344,0.0355,0.0358,0.0379,0.0391,0.0395,0.0399,0.0403,0.0424,0.0457,0.0467,0.0362,0.0362,0.0362,0,0,0.0155,0.0174,0.0178,0.0208,0.0229,0.0256,0.0264,0.0291,0.0318,0.031,0.0345,0.0345,0.0349,0.0373,0.0383,0.0378,0.0437,0.0405,0.0408,0.0427,0.046,0.047,0.048,0.0363,0.0363,0.0363,0,0,0.0152,0.0162,0.0176,0.02,0.0238,0.0259,0.027,0.0307,0.0329,0.0358,0.036,0.0378,0.0394,0.0409,0.0416,0.0445,0.0451,0.0444,0.0496,0.0528,0.0537,0.0545,0.0567,0.0577,0.0454,0.0454,0.0454,0,0.014,0.0164,0.0184,0.021,0.0235,0.0262,0.0292,0.0317,0.0354,0.0389,0.0375,0.0424,0.0415,0.0462,0.047,0.0457,0.0474,0.0476,0.0535,0.0543,0.0551,0.0571,0.0582,0.0456,0.0456,0.0456,0.0456,0,0.0156,0.0176,0.0189,0.0231,0.0258,0.0287,0.033,0.0367,0.0395,0.043,0.0484,0.0479,0.0516,0.0511,0.0499,0.0556,0.0549,0.053,0.0525,0.0565,0.0582,0.0593,0.046,0.0459,0.0458,0.0458,0,0,0.0129,0.0188,0.0194,0.0226,0.0275,0.0306,0.0358,0.0427,0.0485,0.0514,0.0581,0.0594,0.0608,0.0616,0.0605,0.0632,0.0684,0.0612,0.0612,0.0638,0.0759,0.0715,0.0721,0.0681,0.0683,0.0684,0.0746,0,0.0139,0.0189,0.0218,0.0274,0.0308,0.0357,0.0415,0.0482,0.0531,0.0599,0.0625,0.0668,0.0644,0.0657,0.0686,0.0678,0.0715,0.067,0.0712,0.0714,0.0674,0.0734,0.0691,0.0753,0.0756,0.0757,0.0759,0,0.0148,0.0186,0.024,0.0325,0.0348,0.0396,0.0506,0.0556,0.0656,0.0692,0.0748,0.0761,0.0804,0.0764,0.0815,0.079,0.079,0.0784,0.0786,0.0744,0.069,0.0706,0.0777,0.0776,0.0774,0.0773,0.0772,0,0.0131,0.0202,0.025,0.0275,0.0373,0.0434,0.0497,0.0603,0.066,0.0749,0.079,0.0849,0.0872,0.089,0.0873,0.0855,0.092,0.0886,0.0857,0.0853,0.0854,0.0845,0.0944,0.0944,0.0944,0.0943,0.0943,0,0.0128,0.0166,0.026,0.0289,0.0386,0.0452,0.0556,0.0631,0.0724,0.0793,0.0838,0.088,0.0907,0.0937,0.0917,0.0921,0.0959,0.0891,0.0878,0.0867,0.0858,0.0861,0.0851,0.0946,0.0945,0.0945,0.0944,0,0.0095,0.0146,0.0216,0.0334,0.038,0.0454,0.058,0.0651,0.074,0.082,0.0843,0.0923,0.0967,0.0985,0.1009,0.0976,0.0972,0.0964,0.096,0.0942,0.0876,0.0867,0.0954,0.0953,0.0953,0.0952,0.0952,0,0.0074,0.0107,0.0238,0.0296,0.0358,0.0465,0.0543,0.065,0.0704,0.0832,0.086,0.0947,0.0986,0.1,0.101,0.1006,0.0986,0.0982,0.0932,0.0905,0.0884,0.0875,0.0867,0.0951,0.095,0.095,0.095,0,0.004,0.0095,0.0158,0.0283,0.0378,0.0458,0.0566,0.0603,0.0716,0.0794,0.0869,0.0908,0.0969,0.0984,0.0997,0.0979,0.0979,0.0975,0.0975,0.0929,0.0901,0.0879,0.0872,0.0948,0.0948,0.0948,0.0948,0,0.0011,0.0054,0.015,0.0266,0.0367,0.0439,0.05,0.0582,0.0649,0.0788,0.0806,0.0894,0.0965,0.0971,0.0967,0.0966,0.0951,0.0907,0.0911,0.0914,0.087,0.0827,0.0864,0,0,0,0,0,-0.002,0.0034,0.0128,0.0245,0.0341,0.0402,0.051,0.0561,0.0665,0.0707,0.076,0.0811,0.086,0.0894,0.0885,0.0935,0.0937,0.0919,0.0884,0.0935,0.0938,0.0887,0,0,0,0,0,0,-0.0037,0.0034,0.0105,0.0202,0.0271,0.0362,0.043,0.0501,0.0529,0.0638,0.0668,0.0752,0.0801,0.0849,0.0861,0.0872,0.0833,0.0971,0.0969,0.0934,0.0936,0.0938,0.0887,0,0,0,0,0]},{"header":{"parameterUnit":"m.s-1","parameterCategory":2,"la1":30.2991,"la2":30.254,"lo1":-89.0895,"lo2":-89.0444,"dy":0.0017,"dx":0.0017,"nx":28,"ny":28,"refTime":"2025-07-07T21:00:00:Z","depth":"4","parameterNumber":3,"parameterNumberName":"V-component_of_CURRENTS"},"data":[0,0,0,0,0,0,0,0,0,0,0,0,0,0,0,0,0,0,0,0,0,0,0,0,0,0,0,0,0,0,0,0,0,0,0,0,0,0,0,0,0,0,0,0,0,0,0,0,0,0,0,0,0,0,0,0,0,0,0.005,0.005,0,0.0014,0.0014,0.0013,-0.0007,-0.0007,-0.0007,-0.0007,-0.0093,-0.0095,-0.0098,0,0,0,0,0,0,0,0,0,0,0,0,0,0.0033,0.0034,0.005,0.005,0.0049,0.0014,0.0014,0.0013,-0.0007,-0.0007,-0.0007,-0.0007,-0.0092,-0.0095,-0.0098,0,0,0,0,0,0,0,0,0,0,0,0,0,0.0023,0.0034,0.005,0.0035,0.0034,0.0014,0.0014,0.0013,-0.0007,-0.0007,-0.0007,-0.0007,-0.0092,-0.0095,-0.0098,-0.0119,0,0,-0.0109,-0.011,0,0,0,0,0,0,0,0,0.0024,0.0024,0.0038,0.0036,0.0034,0.0009,-0.0024,-0.0033,-0.0007,0.0008,-0.0007,-0.0007,-0.0064,-0.0069,-0.0076,-0.0123,-0.0127,-0.0109,-0.0111,-0.0113,-0.0114,0,0,0,0,0,0,0,0.0025,0.0025,0.0035,0.0038,0.0035,0.0007,0.0006,-0.0026,-0.0028,0.0007,0.0005,0.0002,-0.0065,-0.0072,-0.0078,-0.0128,-0.0109,-0.0112,-0.0114,-0.0115,-0.0249,-0.025,0,0,0,0,0,0,0.0034,0.0026,0.0036,0.0034,0.0029,0.0008,0.0007,0.0017,-0.0027,-0.0033,0.0002,0.0001,-0.0067,-0.0074,-0.0081,-0.0123,-0.0113,-0.0116,-0.0118,-0.0247,-0.0249,-0.025,0,0,0,0,0,0,0.0034,0.0036,0.0038,0.0029,0.0027,0.0009,0.0019,0.0016,-0.0003,-0.003,-0.0037,-0.0013,-0.0067,-0.0077,-0.0126,-0.0126,-0.0117,-0.012,-0.0245,-0.0248,-0.025,-0.0197,0,0,0,0,0,0,0.0034,0.0036,0.0039,0.003,0.0028,0.0026,0.0019,0.0015,-0.0003,-0.0005,-0.0046,-0.0053,-0.0068,-0.0121,-0.0129,-0.013,-0.0123,-0.0243,-0.0246,-0.0249,-0.0196,-0.0197,-0.0197,0,0,0,0,0,0.0033,0.0046,0.0039,0.004,0.0035,0.0026,0.0022,0.0008,-0.0004,-0.001,-0.0047,-0.0052,-0.0145,-0.0125,-0.0134,-0.0136,-0.0242,-0.0245,-0.0249,-0.0196,-0.0197,-0.0197,0,0,0,0,0,0,0.0039,0.0044,0.0037,0.005,0.0036,0.0022,0.0015,0.0,-0.0033,-0.0041,-0.007,-0.0081,-0.0124,-0.0149,-0.0127,-0.0188,-0.0195,-0.02,-0.0152,-0.0153,-0.0153,-0.0105,-0.0126,0,0,0,0,0,0.0042,0.0053,0.0044,0.0051,0.0044,0.0024,0.0014,0.0004,-0.0022,-0.0036,-0.0067,-0.0108,-0.0145,-0.0163,-0.0201,-0.0233,-0.0259,-0.0245,-0.0245,-0.0245,-0.0217,-0.0269,-0.027,-0.0261,-0.0261,-0.0261,0,0,0.0046,0.0048,0.0055,0.0052,0.0039,0.0051,0.0018,0.0005,0.0016,-0.0043,-0.0054,-0.0113,-0.0158,-0.0191,-0.0213,-0.021,-0.0269,-0.0249,-0.0248,-0.022,-0.0272,-0.0273,-0.0273,-0.0264,-0.0263,-0.0263,0,0,0.0075,0.006,0.0085,0.0078,0.0063,0.0053,0.0048,0.0024,0.0012,-0.0019,-0.0057,-0.0111,-0.0171,-0.019,-0.021,-0.0239,-0.0273,-0.027,-0.0221,-0.0272,-0.0272,-0.0272,-0.0328,-0.0333,-0.0263,-0.0263,-0.0263,0,0.0077,0.0117,0.0085,0.0107,0.0114,0.006,0.009,0.007,0.0032,0.0016,-0.0018,-0.0119,-0.0157,-0.0185,-0.0193,-0.0231,-0.0277,-0.0208,-0.0268,-0.0269,-0.027,-0.0326,-0.0333,-0.026,-0.0261,-0.0261,-0.0261,0,0.0136,0.0159,0.0167,0.0189,0.0182,0.0191,0.0168,0.0146,0.0107,0.0078,0.0015,-0.0058,-0.0119,-0.0145,-0.0172,-0.0203,-0.024,-0.0264,-0.0254,-0.0266,-0.0327,-0.0334,-0.0257,-0.0258,-0.0259,-0.0259,0,0,0.0173,0.0208,0.0213,0.0221,0.0229,0.0216,0.0238,0.0228,0.0194,0.0145,0.0103,0.0047,-0.003,-0.0058,-0.012,-0.0151,-0.0206,-0.0204,-0.0208,-0.0234,-0.0334,-0.0302,-0.0308,-0.0249,-0.025,-0.025,-0.038,0,0.0233,0.029,0.0304,0.0339,0.0356,0.0329,0.0333,0.0302,0.0244,0.0173,0.011,0.0022,0.0014,-0.0064,-0.0082,-0.0197,-0.0221,-0.0168,-0.0338,-0.0343,-0.0292,-0.0313,-0.0252,-0.0386,-0.0388,-0.0389,-0.039,0,0.0303,0.0323,0.0384,0.0384,0.0386,0.0395,0.0354,0.0343,0.0261,0.0202,0.0136,0.0044,-0.0016,-0.0049,-0.0163,-0.014,-0.0213,-0.028,-0.0288,-0.027,-0.0323,-0.0371,-0.0404,-0.0403,-0.0402,-0.0401,-0.04,0,0.0322,0.0377,0.0419,0.0427,0.0422,0.0428,0.0409,0.0345,0.0301,0.0191,0.0119,0.004,-0.0056,-0.0124,-0.023,-0.0227,-0.0366,-0.0392,-0.0416,-0.0417,-0.0428,-0.0426,-0.0448,-0.0448,-0.0448,-0.0448,-0.0447,0,0.038,0.0398,0.0419,0.0425,0.0418,0.0415,0.0368,0.0332,0.0252,0.0192,0.0109,0.0042,-0.0083,-0.0175,-0.0245,-0.0344,-0.0377,-0.0397,-0.044,-0.041,-0.0404,-0.0435,-0.0431,-0.0452,-0.0451,-0.045,-0.045,0,0.0371,0.0413,0.0423,0.0428,0.0424,0.0393,0.0345,0.0298,0.023,0.0149,0.0111,0.0003,-0.011,-0.0211,-0.0361,-0.0383,-0.0478,-0.0498,-0.0457,-0.0498,-0.0497,-0.049,-0.0561,-0.0561,-0.0561,-0.0561,-0.0561,0,0.0364,0.0378,0.0389,0.0381,0.0379,0.0343,0.032,0.0278,0.0244,0.0148,0.012,-0.0016,-0.0082,-0.0262,-0.0359,-0.0497,-0.0493,-0.0548,-0.0498,-0.0469,-0.0505,-0.0499,-0.0492,-0.056,-0.056,-0.056,-0.056,0,0.0303,0.0314,0.031,0.0314,0.0306,0.0297,0.0279,0.0256,0.022,0.0167,0.011,0.001,-0.0116,-0.0243,-0.0357,-0.0439,-0.0519,-0.0546,-0.0547,-0.0501,-0.047,-0.0504,-0.0497,-0.0559,-0.056,-0.056,-0.056,0,0.0216,0.02,0.0213,0.0212,0.0228,0.026,0.0254,0.0245,0.0213,0.0155,0.0146,0.0016,-0.0066,-0.0214,-0.0302,-0.0399,-0.0418,-0.0429,-0.0437,-0.0439,-0.0345,-0.0283,-0.0344,0,0,0,0,0,0.0114,0.0101,0.0107,0.0131,0.0175,0.0196,0.0231,0.0238,0.0233,0.0204,0.0177,0.0079,-0.0078,-0.0156,-0.0248,-0.0308,-0.0444,-0.0417,-0.0462,-0.0556,-0.0557,-0.0461,0,0,0,0,0,0,0.0033,0.0023,0.0071,0.0089,0.0104,0.0154,0.0188,0.0201,0.0194,0.0178,0.0095,0.0059,-0.0101,-0.0042,-0.0258,-0.0289,-0.0324,-0.0496,-0.0497,-0.0555,-0.0556,-0.0557,-0.0459,0,0,0,0,0]}]]